(212547) = 2006 SD20

Discovered at Calvin-Rehoboth on 2006-09-18 by Calvin College.

Orbit

Orbit type: Main Belt

Note: WebGL enabled browser required.

epoch2023-09-13.0
epoch JD2460200.5
perihelion date2023-08-24.62445
perihelion JD2460181.12445
argument of perihelion (°)350.41513
ascending node (°)20.92993
inclination (°)17.50510
eccentricity0.0292097
perihelion distance (AU)3.1014639
Tisserand w.r.t. Jupiter3.1
ΔV w.r.t. Earth (km/sec)12.2
semimajor axis (AU)3.1947826
mean anomaly (°)3.34423
mean daily motion (°/day)0.17260040
aphelion distance (AU)3.288
period (years)5.71
P-vector [x]0.97770570
P-vector [y]0.20701479
P-vector [z]0.03516316
Q-vector [x]-0.18040514
Q-vector [y]0.74244636
Q-vector [z]0.64515688
absolute magnitude16.0
phase slope0.15
uncertainty0
referenceMPO 778468
observations used252
oppositions13
arc length (days)8423
first opposition used2000
last opposition used2023
residual rms (arc-secs)0.69
perturbers coarse indicatorM-v
perturbers precise indicator003Ek
first observation date used2000-10-19.0
last observation date used2023-11-11.0
computer nameMPCLINUX
JD of orbit computation2456700.165022
perihelion JD uncertainty (days)1.0939E-03
argument of perihelion uncertainty (°)1.9372E-04
ascending node uncertainty (°)2.1226E-05
inclination uncertainty (°)1.2942E-05
eccentricity uncertainty 1.4263E-07
perihelion distance uncertainty (AU)4.4778E-07
Minimum Orbit Intersection Distances (in AU)
for orbit epoch: 2460200.5, reference: E2023-VL1
Mercury2.72488
Venus2.37564
Earth2.10289
Mars1.64625
Jupiter1.84945
Saturn6.09245
Uranus15.2011
Neptune26.7394

Observations

258 total observations over interval: 2000 10 19.30800 – 2023 11 11.292876
These data are available for download (format description).

Date (UT) J2000 RA J2000 Dec Magn Location Ref
2000 10 19.30800 00 13 49.37 -04 33 01.9 21.0 V 691 – Steward Observatory, Kitt Peak-Spacewatch MPS 231353
2000 10 19.31372 00 13 49.12 -04 33 01.8 21.6 V 691 – Steward Observatory, Kitt Peak-Spacewatch MPS 231353
2000 10 19.31926 00 13 48.86 -04 33 01.0 21.5 V 691 – Steward Observatory, Kitt Peak-Spacewatch MPS 231353
2006 09 18.33057 02 05 30.91 +13 09 47.2 20.2 R G98 – Calvin-Rehoboth Observatory, Rehoboth MPS 179608
2006 09 18.36687 02 05 29.67 +13 09 51.8 20.7 R G98 – Calvin-Rehoboth Observatory, Rehoboth MPS 179608
2006 09 18.43956 02 05 27.29 +13 10 00.7 22.0 R G98 – Calvin-Rehoboth Observatory, Rehoboth MPS 179608
2006 09 19.30413 02 04 59.31 +13 11 45.0 20.4 R G98 – Calvin-Rehoboth Observatory, Rehoboth MPS 179608
2006 09 19.34225 02 04 58.02 +13 11 49.5 20.7 R G98 – Calvin-Rehoboth Observatory, Rehoboth MPS 179608
2006 09 19.38071 02 04 56.69 +13 11 54.2 20.2 R G98 – Calvin-Rehoboth Observatory, Rehoboth MPS 179608
2006 09 19.41888 02 04 55.37 +13 11 57.7 21.1 R G98 – Calvin-Rehoboth Observatory, Rehoboth MPS 179608
2006 09 19.45734 02 04 54.05 +13 12 02.3 20.9 R G98 – Calvin-Rehoboth Observatory, Rehoboth MPS 179608
2006 09 20.30372 02 04 25.64 +13 13 40.2 20.8 R G98 – Calvin-Rehoboth Observatory, Rehoboth MPS 179608
2006 09 20.34218 02 04 24.22 +13 13 45.1 20.9 R G98 – Calvin-Rehoboth Observatory, Rehoboth MPS 179608
2006 09 20.41997 02 04 21.49 +13 13 53.4 21.4 R G98 – Calvin-Rehoboth Observatory, Rehoboth MPS 179608
2006 09 20.45896 02 04 20.09 +13 13 57.9 21.1 R G98 – Calvin-Rehoboth Observatory, Rehoboth MPS 179608
2006 09 24.37924 02 01 55.40 +13 20 41.3 21.0 V 691 – Steward Observatory, Kitt Peak-Spacewatch MPS 181272
2006 09 24.39665 02 01 54.69 +13 20 43.1 21.4 V 691 – Steward Observatory, Kitt Peak-Spacewatch MPS 181272
2006 09 24.41406 02 01 54.00 +13 20 44.7 21.1 V 691 – Steward Observatory, Kitt Peak-Spacewatch MPS 181272
2006 09 25.27828 02 01 19.74 +13 22 03.6 20.9 R G98 – Calvin-Rehoboth Observatory, Rehoboth MPS 181272
2006 09 25.32390 02 01 17.90 +13 22 07.6 20.4 R G98 – Calvin-Rehoboth Observatory, Rehoboth MPS 181272
2006 09 25.36914 02 01 16.01 +13 22 10.8 20.5 R G98 – Calvin-Rehoboth Observatory, Rehoboth MPS 181272
2006 09 28.42089 01 59 07.64 +13 26 18.9 21.3 V 691 – Steward Observatory, Kitt Peak-Spacewatch MPS 181272
2006 09 28.44177 01 59 06.69 +13 26 20.5 21.2 V 691 – Steward Observatory, Kitt Peak-Spacewatch MPS 181272
2006 09 28.45921 01 59 05.92 +13 26 21.8 21.4 V 691 – Steward Observatory, Kitt Peak-Spacewatch MPS 181272
2006 10 02.37422 01 56 07.47 +13 30 35.0   691 – Steward Observatory, Kitt Peak-Spacewatch MPS 182860
2006 10 02.39503 01 56 06.43 +13 30 36.5   691 – Steward Observatory, Kitt Peak-Spacewatch MPS 182860
2006 10 02.41241 01 56 05.60 +13 30 37.4   691 – Steward Observatory, Kitt Peak-Spacewatch MPS 182860
2006 10 16.20470 01 44 06.29 +13 36 48.0 20.2 V 691 – Steward Observatory, Kitt Peak-Spacewatch MPS 183045
2006 10 16.21463 01 44 05.72 +13 36 48.2 20.3 V 691 – Steward Observatory, Kitt Peak-Spacewatch MPS 183045
2006 10 16.22456 01 44 05.15 +13 36 47.9 20.2 V 691 – Steward Observatory, Kitt Peak-Spacewatch MPS 183045
2006 10 20.18288 01 40 24.37 +13 36 30.2 20.2 V 691 – Steward Observatory, Kitt Peak-Spacewatch MPS 183045
2006 10 20.19280 01 40 23.80 +13 36 30.3 20.1 V 691 – Steward Observatory, Kitt Peak-Spacewatch MPS 183045
2006 10 20.20272 01 40 23.25 +13 36 30.0 20.1 V 691 – Steward Observatory, Kitt Peak-Spacewatch MPS 183045
2006 11 11.18032 01 21 23.50 +13 29 02.3 21.1 R G98 – Calvin-Rehoboth Observatory, Rehoboth MPS 186517
2006 11 11.20564 01 21 22.26 +13 29 01.1 21.3 R G98 – Calvin-Rehoboth Observatory, Rehoboth MPS 186517
2006 11 11.23082 01 21 21.11 +13 29 00.5 21.6 R G98 – Calvin-Rehoboth Observatory, Rehoboth MPS 186517
2006 11 11.25598 01 21 19.91 +13 29 01.1 21.1 R G98 – Calvin-Rehoboth Observatory, Rehoboth MPS 186517
2006 11 25.15854 01 13 02.85 +13 30 19.2 20.8 V G96 – Mt. Lemmon Survey MPS 190535
2006 11 25.16523 01 13 02.71 +13 30 19.1 21.0 V G96 – Mt. Lemmon Survey MPS 190535
2006 11 25.17193 01 13 02.46 +13 30 19.6 21.0 V G96 – Mt. Lemmon Survey MPS 190535
2006 11 25.17871 01 13 02.28 +13 30 19.8 20.5 V G96 – Mt. Lemmon Survey MPS 190535
2007 12 16.39150 07 51 32.85 +45 26 28.1 20.7 R G98 – Calvin-Rehoboth Observatory, Rehoboth MPS 231353
2007 12 16.42359 07 51 31.35 +45 26 39.7 20.9 R G98 – Calvin-Rehoboth Observatory, Rehoboth MPS 231353
2007 12 16.45575 07 51 29.94 +45 26 51.8 20.3 R G98 – Calvin-Rehoboth Observatory, Rehoboth MPS 231353
2007 12 18.41662 07 49 58.80 +45 38 49.6 21.4 R G98 – Calvin-Rehoboth Observatory, Rehoboth MPS 231817
2007 12 18.43100 07 49 58.11 +45 38 54.9 20.4 R G98 – Calvin-Rehoboth Observatory, Rehoboth MPS 231817
2007 12 18.44534 07 49 57.38 +45 39 00.4 20.3 R G98 – Calvin-Rehoboth Observatory, Rehoboth MPS 231817
2008 01 03.27684 07 34 29.46 +46 54 28.4 20.9 R G98 – Calvin-Rehoboth Observatory, Rehoboth MPS 232637
2008 01 03.30554 07 34 27.38 +46 54 35.6 21.3 R G98 – Calvin-Rehoboth Observatory, Rehoboth MPS 232637
2008 01 26.12979 07 09 06.08 +47 09 20.3 22.3 R G98 – Calvin-Rehoboth Observatory, Rehoboth MPS 235467
2008 01 26.13733 07 09 05.71 +47 09 20.1 21.8 R G98 – Calvin-Rehoboth Observatory, Rehoboth MPS 235467
2008 01 26.14480 07 09 05.21 +47 09 17.3 21.8 R G98 – Calvin-Rehoboth Observatory, Rehoboth MPS 235467
2008 01 26.15236 07 09 04.81 +47 09 17.6   G98 – Calvin-Rehoboth Observatory, Rehoboth MPS 235467
2009 02 28.38687 12 39 00.21 +06 17 49.6 21.2 V G96 – Mt. Lemmon Survey MPS 278694
2009 02 28.39371 12 38 59.89 +06 17 50.4 21.1 V G96 – Mt. Lemmon Survey MPS 278694
2009 02 28.40060 12 38 59.60 +06 17 51.1 21.2 V G96 – Mt. Lemmon Survey MPS 278694
2009 02 28.40740 12 38 59.38 +06 17 52.0 21.1 V G96 – Mt. Lemmon Survey MPS 278694
2009 03 18.33458 12 25 13.83 +06 49 36.7 20.0 V 703 – Catalina Sky Survey MPS 281308
2009 03 18.33944 12 25 13.62 +06 49 37.0 20.5 V 703 – Catalina Sky Survey MPS 281308
2009 03 18.34425 12 25 13.33 +06 49 36.4 20.8 V 703 – Catalina Sky Survey MPS 281308
2009 03 18.34912 12 25 13.11 +06 49 38.2 20.1 V 703 – Catalina Sky Survey MPS 281308
2009 03 19.31863 12 24 23.16 +06 51 07.9 20.5 R G98 – Calvin-Rehoboth Observatory, Rehoboth MPS 280147
2009 03 19.34156 12 24 21.98 +06 51 09.5 21.3 R G98 – Calvin-Rehoboth Observatory, Rehoboth MPS 280147
2009 03 19.36431 12 24 20.74 +06 51 11.8 20.8 R G98 – Calvin-Rehoboth Observatory, Rehoboth MPS 280147
2009 03 19.38700 12 24 19.51 +06 51 14.2 20.2 R G98 – Calvin-Rehoboth Observatory, Rehoboth MPS 280147
2009 03 24.31502 12 20 01.77 +06 57 59.0 20.8 R G98 – Calvin-Rehoboth Observatory, Rehoboth MPS 281308
2009 03 24.32914 12 20 01.03 +06 57 59.1 21.0 R G98 – Calvin-Rehoboth Observatory, Rehoboth MPS 281308
2009 03 24.34332 12 20 00.29 +06 57 59.7 21.7 R G98 – Calvin-Rehoboth Observatory, Rehoboth MPS 281308
2009 03 25.32030 12 19 08.83 +06 59 08.3 20.2 V G96 – Mt. Lemmon Survey MPS 281308
2009 03 25.32707 12 19 08.43 +06 59 09.0 20.2 V G96 – Mt. Lemmon Survey MPS 281308
2009 03 25.34035 12 19 07.75 +06 59 09.5 19.8 V G96 – Mt. Lemmon Survey MPS 281308
2009 03 25.34723 12 19 07.39 +06 59 10.1 20.2 V G96 – Mt. Lemmon Survey MPS 281308
2011 09 17.42540 22 34 38.451 -27 53 09.38 20.7 i F51 – Pan-STARRS 1, Haleakala MPS 392399
2011 09 17.43664 22 34 37.877 -27 53 07.65 20.6 i F51 – Pan-STARRS 1, Haleakala MPS 392399
2012 10 15.38681 03 25 54.15 +29 34 28.0 21.1 V 691 – Steward Observatory, Kitt Peak-Spacewatch MPS 437492
2012 10 15.40523 03 25 53.35 +29 34 32.4 21.2 V 691 – Steward Observatory, Kitt Peak-Spacewatch MPS 437492
2012 10 15.42294 03 25 52.57 +29 34 37.2 21.1 V 691 – Steward Observatory, Kitt Peak-Spacewatch MPS 437492
2012 12 13.11527 02 34 18.37 +30 01 17.4 21.2 V G96 – Mt. Lemmon Survey MPS 447506
2012 12 13.12172 02 34 18.12 +30 01 16.8 21.3 V G96 – Mt. Lemmon Survey MPS 447506
2012 12 13.12817 02 34 17.94 +30 01 16.0 20.8 V G96 – Mt. Lemmon Survey MPS 447506
2012 12 13.13466 02 34 17.72 +30 01 15.3 20.8 V G96 – Mt. Lemmon Survey MPS 447506
2014 01 20.52863 09 36 15.919 +39 16 23.53 20.4 r F51 – Pan-STARRS 1, Haleakala MPS 499923
2014 01 20.54039 09 36 15.256 +39 16 26.55 20.6 r F51 – Pan-STARRS 1, Haleakala MPS 499923
